Probability
0 0 0 0 0 0 0 0 0 0 1 2 2 1 1 2 3 2 1 0 0 0 0 1 1 0 0 0 0 0 0 1 3 3 2 1 0 0 1 1 1 1 0 0
0 0 0 0 0 0 0 0 0 0 0 1 1 0 1 1 2 1 0 0 0 0 0 2 2 1 0 0 1 1 1 2 3 2 1 0 0 0 1 2 2 2 1 1
0 0 0 0 0 0 0 0 0 0 0 0 0 0 1 1 1 1 0 0 0 0 0 1 3 3 1 1 2 2 3 3 3 2 1 1 1 1 2 3 3 3 3 2
0 0 0 0 0 0 0 0 0 0 0 0 0 0 1 1 1 0 0 1 1 1 1 2 3 5 5 5 4 4 3 3 2 2 2 3 3 2 3 3 3 3 3 3
0 0 0 0 0 0 0 0 0 0 0 0 0 0 0 0 0 0 0 1 2 4 4 4 4 6 9 10 9 5 3 2 1 1 3 4 4 3 3 3 3 3 3 3
0 0 0 0 0 0 0 0 0 0 0 0 0 0 0 0 0 1 1 1 2 5 7 7 7 8 10 13 12 8 3 1 0 0 1 3 3 3 2 3 3 3 3 3
0 0 0 0 0 0 0 0 0 0 0 0 0 0 0 1 1 2 2 1 1 3 6 9 10 10 11 13 13 10 6 3 2 1 2 2 3 2 2 2 3 3 3 4
0 0 0 0 0 0 0 0 0 0 0 0 0 0 1 2 3 4 5 4 2 3 6 9 11 13 13 13 14 13 10 8 6 5 4 3 2 1 1 1 2 3 4 5
0 0 0 0 0 0 0 0 0 0 0 0 0 0 1 3 4 6 8 7 5 5 7 8 9 11 12 12 14 15 15 13 11 10 8 7 5 3 2 2 2 3 4 5
0 0 0 0 0 0 0 0 0 0 0 0 0 0 1 3 5 7 9 9 8 8 9 8 7 9 10 10 12 15 17 16 16 15 13 12 11 9 7 6 5 5 5 4
0 0 0 0 0 0 0 0 0 0 0 0 0 1 2 4 5 7 8 9 8 9 9 9 8 9 10 11 13 16 18 18 19 19 17 16 15 13 12 10 9 8 7 5
0 0 0 0 0 0 0 0 0 0 0 0 1 2 3 4 5 6 8 8 7 8 9 10 10 10 13 17 18 19 20 20 22 23 22 21 19 19 19 19 17 15 12 10
0 0 0 0 0 0 0 0 0 0 0 1 2 3 3 4 4 6 8 8 8 8 9 11 12 14 18 21 22 22 23 23 25 28 29 27 26 27 30 30 25 21 17 14
0 0 0 0 0 0 0 0 0 0 0 1 2 2 1 2 4 6 8 9 9 9 10 11 13 16 19 21 21 23 25 26 27 29 32 32 31 33 34 32 27 22 18 17
0 0 0 0 0 0 0 0 0 0 0 1 2 1 0 2 5 8 9 11 11 10 10 10 12 14 16 18 20 22 23 25 27 28 31 32 32 32 31 28 24 21 19 19
0 0 0 0 0 0 0 0 0 0 0 2 2 1 1 4 8 11 12 14 14 12 10 9 10 11 11 14 18 20 21 23 25 25 26 26 26 27 26 24 22 21 21 21
0 0 0 0 0 0 0 0 0 0 0 1 1 2 5 9 12 13 13 14 15 14 11 10 11 11 10 11 14 17 19 20 20 20 20 20 21 22 22 20 18 20 21 20
0 0 0 0 0 0 0 0 0 0 0 1 1 4 8 11 11 11 11 12 13 13 11 10 10 10 9 10 11 13 15 16 17 17 16 16 17 18 18 17 16 17 18 17
0 0 0 0 0 0 0 0 0 0 1 2 2 4 7 8 8 8 9 10 10 11 10 8 7 7 6 7 8 10 11 13 14 14 13 13 14 16 17 17 15 15 16 15
0 0 0 0 0 0 0 0 0 0 1 1 3 4 5 4 5 6 8 10 10 9 8 6 6 5 5 6 7 8 9 10 10 10 10 11 12 14 16 16 16 16 16 14
0 0 0 0 0 0 0 0 0 0 0 0 1 3 3 3 4 5 8 10 10 9 7 6 6 6 7 6 7 7 7 7 8 8 10 11 12 12 13 15 15 16 16 15
0 0 0 0 0 0 0 0 0 0 0 0 0 2 4 4 5 6 8 9 9 9 8 6 6 7 8 8 9 9 8 8 9 11 11 11 11 11 12 12 13 14 15 15
0 0 0 0 0 0 0 0 0 0 0 0 1 3 4 4 5 6 7 7 8 8 8 7 7 8 9 9 10 11 11 11 12 12 12 11 10 11 12 12 11 11 11 12
0 0 0 0 0 0 0 0 0 0 0 0 1 3 3 3 2 4 6 6 7 7 7 7 7 7 8 9 11 12 12 13 12 12 11 10 11 12 13 13 12 10 9 9
0 0 0 0 0 0 0 0 0 0 0 0 1 2 2 1 1 3 5 6 6 6 6 6 6 6 6 8 11 11 11 11 12 11 10 10 11 11 11 10 9 9 8 7
0 0 0 0 0 0 0 0 0 0 0 0 0 1 1 0 0 2 4 5 5 4 4 5 6 6 6 7 9 9 8 10 12 12 10 10 10 9 8 7 6 6 7 7
Wind_Speed
3 4 1 5 6 5 3 2 3 4 2 2 2 2 4 8 8 8 8 8 9 10 8 8 8 8 7 7 7 7 7 5 5 3 3 2 2 2 2 2 3 3 3 3
5 1 5 3 3 3 3 1 2 3 1 2 1 1 3 8 11 10 10 10 10 8 7 8 8 8 9 9 8 8 7 6 6 4 3 2 2 2 2 1 2 3 3 4
4 5 2 2 2 2 1 3 3 2 2 4 2 3 1 3 6 6 7 8 9 10 10 10 10 10 9 10 10 9 8 7 6 5 3 2 1 1 0 1 1 2 3 3
2 3 1 1 1 3 3 4 4 2 3 2 2 2 6 3 4 8 9 9 11 11 10 9 10 10 10 10 9 8 8 7 6 6 5 6 4 4 4 2 2 2 3 3
3 2 2 2 4 4 4 1 2 2 3 2 2 2 7 1 5 9 11 11 12 11 11 11 11 12 10 9 9 8 7 7 7 7 7 6 5 4 2 2 2 2 2 3
3 2 3 4 2 3 4 6 6 6 5 1 2 3 7 4 7 6 9 10 10 10 10 10 9 9 9 9 8 8 8 8 7 7 7 7 7 5 4 3 3 3 2 2
3 3 2 2 1 2 5 6 5 5 4 5 2 2 9 7 5 6 7 8 8 8 9 9 10 10 10 11 11 10 9 9 8 8 8 8 7 7 6 5 4 4 2 3
1 5 3 2 5 5 3 8 8 5 5 5 1 5 8 5 4 3 3 4 4 5 7 9 11 11 11 12 11 11 11 10 9 9 8 7 6 5 5 5 4 4 4 4
5 6 4 2 2 7 5 3 5 7 2 1 5 6 9 3 3 2 0 2 4 5 6 8 9 9 10 10 11 12 11 10 9 9 8 7 7 6 5 5 5 4 3 4
7 3 4 2 4 4 5 8 6 6 5 3 5 4 5 6 5 3 1 2 3 4 4 6 7 8 9 9 9 9 11 11 9 9 9 8 7 7 6 5 5 4 4 4
4 4 4 3 2 3 3 4 5 4 5 6 3 7 6 7 5 4 4 3 3 4 4 4 4 6 7 7 7 8 9 9 9 9 8 7 7 7 6 6 6 5 4 4
3 6 1 4 3 1 3 5 7 5 4 4 4 8 5 4 3 3 3 2 1 2 2 2 2 3 4 6 7 8 8 8 9 8 8 8 7 7 7 7 7 5 5 5
5 6 3 6 6 4 3 2 4 5 5 4 4 8 4 3 2 1 1 2 1 1 1 1 2 2 3 4 5 6 7 8 7 7 7 7 7 8 8 8 6 6 5 5
6 5 6 8 7 3 1 1 3 5 4 4 7 7 7 5 3 3 2 1 1 1 2 2 2 1 2 2 3 4 6 6 6 6 8 8 8 8 7 6 5 5 5 5
6 4 2 3 2 2 2 2 3 4 6 7 6 6 8 6 5 4 2 0 2 1 1 2 1 1 1 1 1 2 3 3 5 6 7 8 7 6 5 5 5 5 5 6
4 4 2 1 1 1 1 2 3 3 3 4 3 5 5 3 0 0 1 2 2 1 1 1 1 0 1 1 1 1 2 2 3 5 5 4 4 5 5 6 5 5 5 5
2 5 4 2 2 2 2 3 3 2 1 3 4 5 2 2 1 2 2 2 2 2 1 1 1 2 2 2 2 2 2 2 2 3 3 3 4 4 5 6 5 5 6 6
5 4 4 2 2 4 7 2 1 2 1 1 2 3 3 2 2 1 1 1 2 2 2 2 2 2 2 1 1 1 0 1 2 2 3 3 4 4 4 5 6 6 5 5
4 7 5 4 3 4 5 1 1 2 2 2 2 2 2 1 2 2 1 1 3 4 3 3 3 2 1 1 1 1 0 0 1 2 3 3 4 4 4 5 5 5 5 5
5 5 6 4 4 6 6 3 2 2 2 2 1 1 2 3 1 4 3 2 2 2 1 1 1 0 1 1 2 2 1 1 3 4 3 3 3 4 5 5 4 3 4 4
3 4 3 4 3 6 5 5 1 3 5 3 1 2 1 2 4 5 4 3 2 2 1 1 1 1 2 1 2 2 2 3 4 3 2 2 3 4 4 3 2 2 2 3
3 3 3 4 3 7 3 2 2 5 3 1 2 2 2 3 4 3 3 3 2 3 2 1 0 2 2 1 2 2 4 4 2 1 2 2 2 3 2 2 2 2 2 2
3 5 5 6 7 5 2 2 3 2 1 1 1 2 2 2 3 3 3 3 3 3 3 2 1 2 2 2 3 4 4 2 2 1 2 2 1 2 2 3 2 2 2 2
2 2 2 2 4 4 3 3 2 1 2 2 2 2 1 2 3 3 3 3 4 4 4 3 2 3 3 3 3 4 3 2 2 2 2 2 2 2 1 1 2 2 3 3
4 1 1 3 5 4 4 3 3 2 2 2 2 2 2 2 3 3 3 4 4 4 4 3 3 4 5 4 4 4 3 3 3 3 2 2 2 2 2 1 1 3 4 5
5 6 5 7 7 5 6 5 4 4 4 4 3 4 3 3 4 4 4 5 4 5 4 3 4 4 5 4 4 4 3 4 4 3 3 2 2 2 1 1 1 2 3 4
Wind_Direction
55 75 171 216 195 186 174 174 247 255 223 153 206 230 182 178 187 191 193 195 200 208 201 189 189 187 180 180 180 184 182 181 166 161 168 174 200 212 218 220 217 210 204 199
44 289 232 205 167 151 159 171 268 304 21 132 188 265 204 190 201 201 199 200 204 207 196 192 189 187 186 189 190 189 189 182 181 182 171 171 172 196 207 222 219 213 209 206
177 239 212 143 133 126 177 190 223 230 14 37 62 337 270 220 211 214 212 206 207 208 204 198 193 193 189 193 195 196 192 188 188 179 149 133 98 56 145 223 228 225 212 209
221 256 175 120 209 146 246 222 190 155 96 328 74 285 289 241 224 222 219 212 212 211 205 200 197 196 197 200 195 192 190 190 188 176 173 177 186 202 212 209 216 229 217 214
236 210 160 211 233 172 212 93 104 102 120 61 18 150 287 269 241 238 226 219 217 209 202 198 199 200 198 195 192 192 187 191 188 184 186 187 200 208 202 193 211 229 230 223
240 241 193 210 233 169 137 67 55 51 68 33 253 166 277 244 228 242 227 221 216 208 203 199 197 193 193 190 189 187 187 195 190 189 191 194 197 198 198 208 215 229 231 232
325 315 274 164 104 30 91 88 37 8 14 256 264 189 250 257 240 231 230 219 212 201 195 191 189 191 194 192 192 189 189 198 195 194 199 202 202 198 204 208 212 217 222 228
169 291 264 199 178 178 165 139 154 187 217 272 309 231 254 275 282 256 226 201 190 191 195 198 197 197 197 195 192 190 192 200 197 197 201 201 199 203 210 210 209 213 219 226
174 250 280 236 187 141 134 156 158 133 148 277 282 285 300 307 336 346 145 163 185 197 200 205 202 196 194 194 193 193 193 198 199 199 197 198 200 205 209 207 208 213 221 225
157 222 288 297 79 45 131 140 99 115 144 232 284 279 263 285 290 305 282 214 214 204 203 206 200 195 193 193 193 193 195 198 197 196 201 206 205 205 204 200 208 213 218 222
133 158 305 24 136 176 108 94 103 111 148 159 231 266 234 231 240 231 237 228 213 210 212 207 203 194 185 182 184 191 197 196 196 198 200 205 203 201 199 203 213 214 212 208
126 123 237 272 282 243 150 153 143 148 207 174 181 261 283 244 248 227 233 238 220 212 209 205 185 164 169 178 186 191 196 200 202 197 196 203 202 198 203 211 213 207 206 207
128 110 70 347 343 3 67 103 124 121 120 154 176 259 317 338 334 295 242 249 220 180 125 87 93 139 174 180 190 196 198 203 202 194 195 201 205 207 210 213 212 205 204 206
110 107 155 190 218 214 214 183 145 127 145 196 219 250 301 311 305 299 287 249 177 116 98 96 100 169 195 182 190 202 206 202 196 194 199 204 209 211 213 211 211 211 209 208
94 120 178 216 230 188 196 234 191 182 186 189 226 229 261 266 258 260 282 72 88 95 102 120 137 199 197 178 216 221 214 203 195 196 206 213 211 207 205 204 206 208 210 212
73 126 121 345 327 171 204 271 233 219 195 208 226 258 268 275 293 290 195 147 137 158 159 166 166 193 217 202 226 241 225 213 195 200 210 212 200 198 202 205 204 201 207 208
88 125 121 229 305 52 277 246 219 216 221 187 216 246 290 300 259 226 211 177 180 190 203 215 216 218 229 235 225 226 231 214 184 197 203 201 202 203 204 204 198 203 208 206
130 112 124 140 100 215 239 267 158 150 294 275 251 274 262 257 275 272 221 182 229 219 220 233 238 246 247 246 257 266 120 160 192 207 209 205 199 202 199 200 207 209 204 206
136 132 119 127 173 260 290 280 167 174 280 298 278 305 336 9 37 351 295 233 225 226 223 225 225 224 220 201 183 142 43 21 222 229 227 216 206 208 208 210 214 211 205 209
55 91 113 128 157 220 243 287 298 122 273 302 292 281 340 33 52 277 301 303 288 285 265 246 244 170 174 218 161 135 189 228 236 238 236 222 209 211 215 218 218 208 199 203
38 51 109 150 195 252 263 295 29 169 244 277 245 240 226 215 227 261 299 308 308 305 285 243 192 208 232 215 157 169 207 234 248 256 254 237 218 222 223 218 209 200 192 192
166 147 165 145 181 251 294 29 162 219 252 246 251 264 266 275 291 300 305 305 318 323 317 296 261 278 269 198 168 204 229 234 232 222 225 243 241 236 223 208 210 193 178 189
192 189 185 186 211 248 273 236 251 208 232 264 241 272 267 285 295 305 309 307 306 305 308 303 260 271 278 239 199 219 238 216 186 195 229 246 246 236 210 195 201 194 185 194
278 149 140 256 269 274 287 290 293 250 233 257 258 267 265 273 279 289 297 300 302 304 299 292 270 263 269 259 235 226 228 199 180 199 223 229 223 234 221 202 204 200 206 209
233 169 154 261 276 306 302 277 267 280 282 286 293 273 252 251 277 276 281 284 285 288 289 283 267 260 262 258 250 241 219 184 193 214 221 231 228 223 226 222 231 231 229 216
213 190 191 230 231 219 254 266 268 268 269 263 267 282 276 245 251 266 269 269 273 274 274 274 274 270 272 268 263 257 230 196 194 215 223 217 221 233 227 218 310 305 256 247